TimeCDT,TemperatureF,Dew PointF,Humidity,Sea Level PressureIn,VisibilityMPH,Wind Direction,Wind SpeedMPH,Gust SpeedMPH,PrecipitationIn,Events,Conditions,WindDirDegrees,DateUTC
12:53 AM,60.1,52.0,75,30.07,10.0,East,6.9,-,N/A,,Clear,100,2013-06-19 05:53:00
1:53 AM,57.9,52.0,81,30.09,10.0,Calm,Calm,-,N/A,,Clear,0,2013-06-19 06:53:00
2:53 AM,55.9,51.1,84,30.10,10.0,East,3.5,-,N/A,,Clear,80,2013-06-19 07:53:00
3:53 AM,54.0,48.0,80,30.11,10.0,Calm,Calm,-,N/A,,Clear,0,2013-06-19 08:53:00
4:53 AM,54.0,46.0,75,30.10,10.0,East,3.5,-,N/A,,Clear,90,2013-06-19 09:53:00
5:53 AM,54.0,46.0,75,30.12,10.0,East,3.5,-,N/A,,Partly Cloudy,80,2013-06-19 10:53:00
6:53 AM,59.0,46.9,64,30.12,10.0,ESE,4.6,-,N/A,,Mostly Cloudy,110,2013-06-19 11:53:00
7:53 AM,62.1,48.9,62,30.14,10.0,SSE,5.8,-,N/A,,Clear,150,2013-06-19 12:53:00
8:53 AM,64.0,51.1,63,30.14,10.0,ESE,5.8,-,N/A,,Partly Cloudy,120,2013-06-19 13:53:00
9:53 AM,68.0,52.0,56,30.13,10.0,Calm,Calm,-,N/A,,Partly Cloudy,0,2013-06-19 14:53:00
10:53 AM,71.1,53.1,53,30.12,10.0,East,5.8,-,N/A,,Clear,90,2013-06-19 15:53:00
11:53 AM,73.0,54.0,51,30.12,-9999.0,North,-9999.0,-,N/A,,Clear,0,2013-06-19 16:53:00
12:53 PM,78.1,55.9,46,30.09,10.0,East,3.5,-,N/A,,Clear,90,2013-06-19 17:53:00
1:53 PM,77.0,55.0,47,30.09,10.0,Calm,Calm,-,N/A,,Clear,0,2013-06-19 18:53:00
2:53 PM,77.0,57.0,50,30.08,10.0,Calm,Calm,-,N/A,,Mostly Cloudy,0,2013-06-19 19:53:00
3:53 PM,75.9,55.9,50,30.07,10.0,South,4.6,-,N/A,,Partly Cloudy,180,2013-06-19 20:53:00
4:53 PM,77.0,57.0,50,30.06,10.0,SSE,4.6,-,N/A,,Partly Cloudy,150,2013-06-19 21:53:00
5:53 PM,78.1,57.0,48,30.06,10.0,SE,6.9,-,N/A,,Scattered Clouds,130,2013-06-19 22:53:00
6:53 PM,75.9,57.9,54,30.06,10.0,East,9.2,-,N/A,,Clear,100,2013-06-19 23:53:00
7:53 PM,73.9,57.0,55,30.05,10.0,ESE,6.9,-,N/A,,Clear,120,2013-06-20 00:53:00
8:53 PM,71.1,57.0,61,30.04,10.0,SE,6.9,-,N/A,,Clear,130,2013-06-20 01:53:00
9:53 PM,68.0,57.9,70,30.06,10.0,SE,3.5,-,N/A,,Clear,130,2013-06-20 02:53:00
10:53 PM,69.1,57.9,68,30.07,10.0,SE,6.9,-,N/A,,Clear,130,2013-06-20 03:53:00
11:53 PM,68.0,57.0,68,30.08,10.0,SE,6.9,-,N/A,,Clear,140,2013-06-20 04:53:00